Theta_e
327 324 323 326 322 318 321 321 317 320 329 326 314 312 315 314 314 316 314 315 321 327 332 335 337 338 337 338 337 336 337 338 339 339 340 348 351 349 349 353 355 356 356 358 359 358 357 357 357 357 357 356 356 358 361 361 362 363 365 364 364 364 363
326 325 324 325 324 323 321 316 318 326 330 328 319 314 315 315 314 316 313 313 316 316 321 332 339 337 336 339 338 336 338 337 338 339 338 344 350 350 350 353 357 357 356 356 359 358 357 357 357 357 358 357 357 359 360 361 362 364 365 365 365 364 364
326 328 325 321 323 326 323 321 326 325 317 316 317 314 314 315 315 315 313 313 314 313 317 329 336 337 337 339 338 337 337 336 338 338 339 341 344 348 350 353 357 359 356 356 358 357 356 356 356 357 358 358 359 360 359 360 361 363 364 364 364 364 364
326 326 322 315 317 323 324 324 328 326 319 316 316 315 315 314 314 315 314 313 314 318 326 332 336 339 339 338 339 339 337 337 337 337 339 340 344 350 352 353 357 359 356 355 357 356 356 355 355 358 359 358 359 360 359 359 361 363 364 363 363 363 364
322 319 320 318 318 320 319 317 317 320 321 320 319 317 314 314 314 314 315 314 313 323 335 337 338 340 337 336 338 338 337 337 337 338 338 339 346 352 352 353 356 359 357 356 356 356 355 355 357 359 358 356 356 358 359 358 360 364 364 362 362 363 363
315 317 325 326 324 323 321 316 315 317 319 317 315 315 315 315 313 312 315 313 314 327 338 337 337 338 336 336 336 336 337 335 337 339 337 340 348 351 351 352 354 358 358 356 355 355 354 355 357 357 355 353 354 356 358 356 357 361 360 359 361 362 363
319 323 327 326 323 325 325 322 321 323 322 316 311 312 314 314 313 314 314 312 317 332 340 337 337 338 336 336 336 336 335 336 338 339 335 341 349 351 350 349 350 356 359 357 357 356 355 354 354 354 353 353 353 355 357 355 355 357 356 355 358 362 364
323 325 326 326 326 326 322 322 325 323 321 321 319 319 319 314 312 314 314 311 317 332 341 338 337 338 335 335 337 337 336 337 336 337 343 352 354 353 352 349 351 355 356 358 360 359 356 354 353 354 353 352 352 353 353 353 353 354 353 351 353 358 364
317 318 320 320 322 322 320 321 325 324 323 324 324 323 322 317 314 314 315 312 317 331 341 338 336 337 336 336 335 336 337 338 335 338 349 357 356 355 358 357 356 356 359 365 368 365 361 355 352 354 353 352 352 351 351 350 351 352 351 350 350 354 362
314 313 313 314 316 319 320 321 324 325 325 323 320 317 315 315 316 316 314 313 320 334 342 337 336 338 336 336 335 335 335 337 337 339 347 354 356 356 361 363 361 362 367 372 374 371 364 354 350 354 354 352 350 350 350 349 350 351 351 352 351 352 360
316 315 318 322 322 317 315 317 320 322 324 325 321 314 311 315 316 314 318 321 320 327 337 337 336 337 337 337 335 335 336 337 338 342 346 351 355 359 364 365 365 370 374 374 375 373 365 354 351 353 354 353 350 351 351 349 349 351 353 354 351 349 357
323 325 326 328 326 319 316 317 318 320 323 324 320 313 315 321 315 310 324 332 321 323 335 339 337 336 337 337 335 334 337 336 336 343 348 348 352 360 368 368 367 371 373 374 374 371 364 357 353 353 354 355 353 351 352 351 350 352 354 354 352 349 355
327 330 328 328 327 324 323 321 319 320 321 320 317 316 321 324 315 312 326 333 325 326 335 335 336 338 335 335 336 335 335 336 336 340 344 346 352 361 368 369 369 370 370 373 373 370 365 361 357 355 356 358 358 354 354 354 353 353 353 354 354 353 354
325 328 328 330 327 324 324 323 323 323 323 321 320 320 323 324 321 322 329 331 330 332 334 333 335 336 334 335 336 335 335 337 338 337 337 339 349 357 360 364 368 368 368 370 371 371 371 367 363 362 361 361 361 358 357 357 357 354 355 357 359 357 354
321 326 329 328 327 324 321 322 326 325 324 324 321 321 323 322 321 325 327 326 328 332 334 335 335 336 336 336 336 336 337 337 336 336 335 334 339 343 344 353 364 370 370 370 371 374 373 371 370 368 366 364 362 362 362 362 361 358 357 362 365 363 359
317 325 327 326 326 325 319 318 323 324 322 322 322 323 325 321 320 323 320 318 323 332 334 333 334 336 335 335 335 337 338 338 337 336 335 337 337 337 342 353 365 371 371 371 374 373 372 373 371 369 368 368 366 365 365 364 364 360 360 364 365 364 367
318 324 327 325 324 321 317 318 322 325 325 324 325 326 327 326 324 320 317 318 325 332 332 331 333 334 334 335 337 337 339 342 341 337 337 338 335 336 350 357 362 367 368 370 374 375 373 371 372 370 371 371 368 368 367 367 366 363 364 367 367 368 371
319 324 326 325 322 318 320 325 328 329 327 326 325 325 327 329 328 324 324 327 329 330 329 329 332 334 335 337 337 337 341 344 342 339 339 337 333 339 352 353 353 363 369 370 373 376 375 371 370 372 372 372 371 370 368 369 368 367 367 370 372 372 370
321 324 326 323 320 322 327 331 332 329 329 329 328 328 328 327 328 328 328 328 329 329 330 330 331 333 333 336 337 336 337 338 338 337 337 339 342 349 354 353 355 364 369 370 371 375 375 371 371 373 373 374 373 369 368 370 371 370 372 373 374 371 369
324 324 324 323 325 329 331 333 332 328 331 330 327 327 330 329 328 328 328 328 330 330 330 330 331 331 331 332 334 335 337 337 336 334 333 338 346 351 354 358 362 367 368 366 368 372 372 370 371 372 373 373 370 366 368 372 372 373 373 373 373 371 368
327 322 320 323 325 325 328 333 335 334 334 334 330 328 333 336 334 331 328 329 329 328 329 330 331 332 331 331 332 335 338 339 340 338 336 338 341 344 350 356 362 367 367 366 369 373 372 370 371 373 372 371 369 368 371 374 374 374 374 373 373 372 369
327 322 319 323 322 320 325 334 339 339 335 336 337 332 331 335 335 332 330 329 330 330 329 329 332 333 331 332 335 337 337 336 336 340 340 338 335 340 347 352 359 366 367 367 369 370 371 370 371 373 372 371 372 372 374 375 376 375 373 372 372 371 369
325 323 321 322 321 324 334 340 339 336 334 337 338 328 325 331 333 331 329 329 328 329 330 330 331 332 331 333 336 337 334 331 334 340 342 338 336 342 348 353 359 365 365 365 367 369 370 370 371 372 372 372 373 373 375 376 375 374 372 371 370 368 366
323 323 322 322 323 331 342 342 335 334 336 337 333 323 323 336 343 341 340 338 333 329 330 332 331 330 332 332 333 335 334 334 339 345 345 342 340 343 347 352 360 364 364 366 368 368 368 368 369 369 370 371 373 373 375 374 373 373 372 369 367 365 362
321 322 322 322 324 333 341 338 334 335 335 333 327 324 333 346 348 345 346 345 343 337 330 330 332 333 333 333 336 343 345 345 349 349 346 345 346 347 350 357 361 364 365 366 365 365 367 367 367 368 369 371 373 373 374 374 373 372 370 367 365 362 360
321 321 321 320 323 334 340 336 334 335 333 329 329 335 344 346 344 344 344 342 344 343 335 330 332 332 332 333 337 343 346 351 354 353 349 348 349 349 355 360 362 362 362 362 362 362 363 364 366 367 370 372 373 373 372 371 371 369 367 366 364 362 360
322 320 319 318 323 335 339 334 335 337 335 334 339 344 344 341 342 347 348 346 346 342 335 332 333 333 333 338 340 342 348 354 355 352 352 351 351 356 360 360 360 361 362 363 366 366 365 366 367 369 371 372 371 370 369 367 367 368 367 365 363 360 359
322 316 318 323 330 336 337 335 338 340 339 340 342 342 342 343 344 346 349 351 349 342 338 336 337 338 338 341 346 348 351 355 354 355 357 357 357 359 360 359 359 361 362 365 366 362 359 357 356 360 365 367 365 364 366 366 365 365 365 363 361 359 357
328 324 327 335 338 337 336 337 338 339 339 339 338 340 343 346 345 345 350 351 348 345 347 345 346 351 351 347 348 350 351 353 356 356 357 356 355 355 356 360 363 363 364 366 365 362 361 358 356 357 361 363 364 364 365 365 364 364 362 361 359 357 355
338 339 339 339 338 336 335 335 336 336 336 337 338 341 344 345 345 346 348 350 349 348 350 349 350 353 353 348 347 347 347 348 350 351 351 350 349 351 353 355 358 360 361 363 363 364 365 364 364 365 364 365 366 367 366 366 365 363 360 358 357 355 354
337 340 343 341 338 338 337 335 336 335 335 337 339 341 343 344 343 344 344 344 348 349 349 350 351 350 351 353 352 352 351 350 350 351 352 350 348 348 349 349 350 352 353 354 354 355 356 356 360 364 366 368 367 366 365 364 362 360 358 355 355 355 355
336 339 342 339 337 337 337 335 336 336 335 335 337 338 339 340 341 341 341 340 341 345 343 344 345 345 346 349 352 352 352 352 352 354 355 355 352 349 347 348 349 349 351 353 354 356 356 354 355 358 362 363 363 363 362 360 359 358 356 355 354 354 354
340 340 339 336 335 336 334 333 333 334 334 334 334 335 335 335 335 336 335 336 339 340 337 335 336 337 338 341 343 345 347 349 352 353 354 356 355 352 349 348 350 352 354 356 357 359 359 359 358 359 360 360 360 360 359 358 357 356 354 353 353 352 351
339 339 337 336 336 336 333 331 332 333 332 331 332 333 333 332 332 332 331 332 334 334 332 332 333 334 334 335 335 336 338 342 347 349 349 350 352 353 351 349 350 353 356 356 357 358 358 359 359 359 359 358 358 357 356 355 355 354 353 352 351 350 349
338 336 335 335 335 335 333 331 331 331 330 329 329 330 331 330 330 330 330 331 331 330 330 330 332 333 333 333 332 331 331 334 338 342 345 347 348 351 352 351 352 353 353 354 356 356 355 356 357 357 357 356 355 355 355 354 354 353 352 351 350 349 348
337 335 334 333 333 332 331 329 329 329 328 327 327 326 327 327 328 328 328 329 329 329 328 328 329 330 331 330 330 331 330 330 332 335 339 341 343 346 349 351 352 353 352 353 354 354 354 355 354 354 354 354 353 354 354 353 352 352 352 351 350 350 348
335 334 332 331 331 330 329 328 327 326 325 325 325 324 324 325 326 326 326 326 326 326 326 326 326 327 328 328 328 329 329 329 330 330 332 334 337 340 343 346 348 350 351 352 352 352 353 353 352 351 351 352 352 353 353 353 352 352 352 351 349 349 348
Wind_Speed
21 20 20 21 18 12 11 13 16 16 16 16 12 12 14 14 13 11 11 11 11 12 13 13 14 16 16 16 17 18 18 19 18 13 9 13 15 16 17 19 21 23 22 23 28 30 32 34 34 35 35 34 34 32 31 32 31 30 30 30 29 28 27
20 18 18 22 22 17 11 12 16 17 18 17 12 11 12 12 13 11 13 17 14 12 11 11 17 20 16 15 18 18 18 19 17 12 9 12 15 16 18 20 20 21 22 23 27 31 33 35 35 35 36 35 34 33 32 32 32 31 30 30 29 28 27
18 17 16 18 21 24 19 13 15 16 16 15 12 11 12 12 13 10 15 19 14 12 10 9 15 20 18 19 19 17 16 17 15 13 14 15 15 14 15 18 19 20 22 23 27 31 33 35 34 34 35 35 34 34 32 32 32 32 30 29 28 27 27
16 14 13 13 16 22 23 18 15 13 13 13 12 12 11 12 13 11 14 15 11 12 10 11 15 18 19 20 18 16 16 18 17 16 15 15 14 12 14 16 19 21 23 26 30 33 34 34 34 33 35 35 34 34 33 32 31 31 31 30 28 27 27
15 12 13 16 16 17 18 18 16 14 12 12 14 15 13 12 12 10 12 12 10 10 10 12 16 16 16 18 17 15 15 18 18 14 13 12 12 11 13 15 19 22 23 25 31 33 32 33 33 34 35 35 34 33 33 33 32 31 31 31 28 27 27
14 14 16 20 20 17 16 16 17 16 13 13 15 15 13 14 14 11 11 11 10 9 10 12 15 13 12 15 17 16 18 21 18 13 14 13 14 14 15 15 18 21 21 22 27 30 30 31 33 34 34 34 34 34 33 34 33 31 31 30 29 27 27
13 17 18 20 21 21 19 17 18 18 16 14 13 12 13 15 15 14 14 13 9 8 10 11 13 14 14 15 14 14 16 17 13 11 13 15 18 17 16 15 18 19 19 20 22 26 29 30 31 33 33 33 34 35 33 33 34 33 30 29 28 27 27
11 16 17 18 21 21 19 16 18 19 19 18 15 12 13 14 15 15 14 13 11 10 9 6 8 11 12 12 12 13 14 13 13 14 10 10 15 14 15 17 18 17 17 17 18 20 23 25 29 32 32 33 33 34 33 33 33 33 31 29 28 28 27
10 13 13 15 18 18 14 15 19 21 24 27 21 14 12 12 17 20 15 11 12 11 7 5 8 11 11 15 16 17 16 13 14 13 5 9 9 10 12 16 17 17 17 15 14 15 18 23 28 30 31 32 32 33 33 33 32 32 32 31 30 30 29
11 12 11 11 14 14 12 16 22 23 26 31 24 14 13 13 16 19 15 11 12 12 11 11 11 12 11 15 17 16 15 12 12 11 3 5 6 7 10 13 14 15 13 12 13 13 17 24 28 28 30 32 32 31 33 33 31 30 31 31 31 31 30
12 11 11 11 12 14 15 19 24 24 26 29 23 14 14 14 13 14 13 14 16 16 16 16 16 15 12 11 12 12 11 12 13 10 4 1 4 6 10 11 12 13 12 12 14 13 17 25 29 29 31 32 31 30 31 32 30 29 30 31 32 31 29
17 15 14 15 15 16 19 21 24 25 25 27 23 18 18 18 16 15 14 15 19 20 17 16 17 17 15 13 14 13 11 12 12 9 6 5 7 8 10 12 13 14 13 13 15 15 18 25 29 30 31 32 32 31 31 32 30 30 31 32 33 32 30
21 21 18 17 17 17 20 20 22 23 24 27 26 23 24 22 18 17 15 16 21 23 22 21 18 16 17 18 18 16 13 15 14 9 10 13 13 12 12 13 14 14 13 14 15 16 18 22 27 29 30 30 30 30 31 32 31 31 32 32 32 31 30
22 24 22 21 21 20 20 21 21 22 23 26 26 25 26 25 23 22 21 22 24 23 22 24 21 18 17 16 16 16 15 18 17 14 15 15 16 15 14 13 13 13 14 15 15 16 17 19 24 27 28 29 30 31 31 31 31 30 29 29 30 31 32
17 22 23 24 24 22 22 22 22 23 24 25 26 25 25 24 24 25 25 24 22 18 20 24 23 21 20 17 16 17 16 17 16 16 17 16 12 13 13 11 11 13 14 15 16 17 18 21 25 27 27 28 30 30 30 31 31 30 28 28 28 29 30
13 16 19 23 24 23 24 23 23 26 24 22 22 21 22 22 23 24 24 21 16 15 18 22 22 23 25 24 22 18 15 15 16 15 14 13 14 13 9 8 10 13 15 16 18 20 21 24 27 28 27 28 29 29 29 30 30 30 29 28 28 26 25
12 16 19 19 18 18 19 19 22 25 24 22 22 21 23 23 21 19 18 16 15 15 16 19 22 25 26 25 23 20 16 16 16 16 14 13 16 13 8 9 11 14 16 16 19 20 21 24 29 29 29 29 29 29 28 28 28 29 28 28 28 28 28
11 17 18 16 15 15 14 16 20 24 25 25 24 23 24 23 20 18 17 17 18 18 17 20 23 23 21 19 19 18 17 15 15 18 18 16 15 12 7 8 11 13 15 15 17 20 22 25 28 29 29 28 28 28 28 27 27 27 27 27 28 29 30
9 11 13 14 15 13 12 13 17 22 25 26 26 26 26 25 24 24 23 21 20 19 20 22 22 21 20 19 19 19 20 19 17 19 18 14 12 10 10 11 13 14 15 16 17 20 24 26 27 27 27 27 28 28 27 26 26 26 27 28 28 28 29
9 9 11 13 11 10 11 12 14 17 20 23 23 22 23 24 25 26 24 22 21 21 20 19 19 21 23 21 18 17 19 19 17 19 18 14 12 11 11 12 13 14 16 18 18 21 24 26 27 27 28 28 28 27 27 26 27 27 28 29 28 28 27
9 9 11 11 10 12 13 9 6 5 8 11 10 10 14 17 19 22 24 23 23 22 19 16 17 19 21 19 15 14 14 14 12 14 16 16 15 13 12 12 13 14 17 19 20 22 25 27 27 27 27 27 27 27 27 26 27 27 27 27 28 27 27
9 10 10 10 12 13 10 5 3 3 5 7 7 6 10 14 18 20 22 23 24 23 21 21 20 18 15 13 10 11 14 15 12 11 12 14 15 13 11 12 13 14 17 19 21 24 25 26 27 27 27 28 28 27 27 27 27 27 27 27 29 29 28
10 10 10 10 11 7 3 4 4 2 5 7 6 7 11 12 16 19 19 21 24 23 21 21 20 16 12 11 10 13 17 17 14 10 10 12 13 12 12 13 14 16 18 20 22 24 24 24 25 25 26 27 27 26 27 27 27 26 27 27 27 27 25
12 12 10 9 8 3 4 3 2 2 4 5 4 10 8 7 11 16 18 20 21 22 21 19 17 15 12 10 10 12 14 13 10 9 10 11 12 11 12 14 15 17 18 19 20 22 25 25 25 26 26 25 25 25 26 27 26 25 25 24 23 23 23
14 14 11 9 7 5 8 5 2 2 1 5 8 8 3 9 14 15 16 19 20 21 20 16 14 13 11 9 8 6 7 8 8 8 9 10 10 11 11 13 15 17 17 18 19 20 23 25 26 27 26 24 23 24 25 25 24 24 24 23 23 23 23
13 12 11 11 8 4 7 6 3 1 5 7 5 3 5 8 12 14 15 17 19 19 18 15 12 8 7 9 11 9 8 7 7 8 9 9 10 11 11 13 16 16 16 18 19 19 21 24 25 26 26 24 22 22 22 23 23 24 25 24 23 23 22
11 11 11 12 8 4 5 6 6 4 4 3 1 5 6 7 9 11 12 14 16 17 18 18 15 10 9 10 11 11 10 8 7 8 9 9 10 10 12 14 17 18 16 17 19 21 22 24 25 25 24 22 20 19 20 21 23 24 24 23 23 22 21
11 12 11 5 2 6 6 4 4 3 0 2 2 3 5 6 6 7 7 10 13 15 16 13 8 6 9 9 8 9 10 8 8 8 8 9 10 12 14 16 18 19 18 18 20 23 23 23 24 24 23 20 18 18 19 21 23 24 24 23 23 22 21
6 3 2 4 7 7 6 4 4 4 3 3 2 1 3 4 4 5 5 6 7 5 4 2 2 1 6 9 11 11 10 11 11 11 11 11 12 13 15 17 20 21 20 19 20 20 20 20 21 21 21 19 18 18 19 21 22 23 22 23 23 23 23
6 8 7 8 8 8 9 9 8 7 5 4 3 2 3 4 6 7 8 8 6 3 6 6 6 5 6 9 11 11 12 14 15 13 13 12 13 14 16 18 20 22 21 20 20 19 19 19 19 18 19 20 20 20 20 21 23 23 22 21 20 21 22
6 5 7 9 10 10 11 11 11 11 9 7 7 6 6 6 5 6 8 11 13 7 9 9 9 10 10 10 11 12 13 15 16 16 15 14 14 14 16 17 19 20 19 17 17 17 17 16 17 17 18 19 19 20 22 23 25 26 25 23 19 19 21
5 6 10 13 14 14 13 11 10 11 11 11 11 10 9 8 5 4 7 4 8 8 11 13 13 14 14 12 12 12 12 12 13 14 14 14 14 15 17 18 18 18 17 16 16 16 15 14 14 14 15 15 17 19 21 24 25 25 24 23 22 21 21
7 10 12 14 13 13 14 14 12 12 12 13 14 13 12 12 11 10 12 9 5 7 12 15 16 17 16 15 15 15 12 11 12 12 13 13 14 15 16 18 17 17 16 16 16 15 15 14 14 14 14 15 17 18 19 21 23 23 22 23 23 22 21
7 9 12 11 10 9 10 12 14 13 13 16 18 16 14 13 13 13 13 12 11 12 15 16 17 17 16 16 16 16 13 12 13 13 12 13 13 14 16 17 17 17 16 15 16 16 15 14 15 15 15 16 17 17 18 18 19 21 22 22 21 21 20
4 9 12 10 10 10 9 11 13 13 14 17 18 17 16 16 15 14 13 13 13 15 17 18 17 17 16 16 16 15 14 13 13 13 13 12 12 14 15 15 15 15 15 15 15 15 14 14 14 15 15 16 16 16 16 15 17 19 20 19 19 19 18
3 11 13 11 13 14 11 12 14 14 14 16 16 16 16 16 17 15 14 14 14 14 15 16 17 17 16 15 15 14 13 13 13 13 14 14 13 13 15 15 14 14 13 12 13 13 12 13 14 14 14 15 15 16 16 16 17 19 19 18 19 19 18
7 13 12 12 16 15 11 12 15 15 14 14 14 13 14 15 15 15 14 14 14 14 15 14 16 17 16 15 14 13 12 12 13 13 12 12 12 12 13 13 13 12 11 10 10 10 11 11 12 14 14 14 14 16 17 18 19 19 19 19 19 20 21
Wind_Direction
210 209 209 216 221 217 203 205 217 218 213 221 236 241 235 235 239 233 231 238 233 234 237 228 226 229 226 227 230 229 226 220 217 217 200 179 184 195 195 198 205 200 194 191 189 189 190 190 192 193 192 192 193 193 193 195 195 196 196 196 197 196 196
208 209 210 216 225 228 212 204 214 216 219 224 230 237 231 231 240 233 231 239 234 230 227 210 225 232 219 223 234 232 230 229 218 200 199 204 199 200 201 199 203 200 194 193 191 190 191 190 191 192 190 190 192 194 194 195 195 197 197 196 197 197 196
202 200 210 217 221 226 231 226 213 211 217 217 215 229 229 227 237 235 232 239 241 241 226 201 230 235 218 217 225 223 219 222 218 197 196 211 209 206 205 200 201 199 194 195 193 192 192 191 190 190 189 189 192 195 196 196 197 198 198 198 198 197 196
194 193 205 215 212 215 228 237 224 215 220 215 213 223 227 230 236 234 233 236 238 243 225 206 231 237 224 219 216 215 216 217 215 202 195 201 194 198 211 204 200 199 196 195 194 192 191 189 189 189 189 191 193 194 196 197 197 197 198 199 198 197 197
188 198 203 213 213 203 212 226 224 216 214 216 221 222 220 228 235 232 233 234 233 238 222 209 226 233 220 214 211 209 219 231 229 208 196 188 166 182 216 215 204 198 196 197 193 192 190 186 187 189 191 193 194 195 196 197 197 197 198 199 198 197 197
194 212 210 212 220 217 208 213 222 222 215 214 222 223 217 222 231 234 239 240 234 235 232 217 223 231 217 207 208 203 207 227 232 205 195 182 160 178 206 217 215 200 193 196 193 190 190 187 188 190 191 192 194 195 196 196 198 199 198 199 199 197 197
202 213 216 212 217 226 225 216 217 225 225 220 219 221 219 221 226 230 240 247 237 228 238 224 211 221 222 207 205 207 209 220 229 223 213 181 162 179 193 206 223 209 192 194 189 185 190 190 189 191 191 192 194 196 197 196 199 199 197 197 199 198 197
218 209 216 217 212 219 230 224 216 219 224 227 226 224 226 225 222 223 231 238 232 228 243 237 200 209 231 226 210 211 217 219 225 234 226 156 153 177 186 198 220 212 193 192 186 182 187 189 188 190 192 193 193 195 197 198 199 199 196 194 196 198 198
222 206 206 214 209 209 221 225 219 216 219 226 229 227 230 230 223 224 231 234 229 227 227 216 188 186 214 235 225 215 218 224 231 230 187 120 148 183 190 199 213 208 193 189 187 183 183 185 187 189 191 193 193 194 197 198 198 198 195 193 194 196 196
210 207 205 207 204 204 213 223 225 220 217 224 227 220 225 231 225 223 230 238 230 216 200 194 195 189 201 226 226 214 212 222 240 246 211 131 170 197 202 206 207 204 195 184 185 184 180 183 187 187 189 193 194 194 196 199 198 195 192 191 193 194 194
221 214 213 211 205 206 209 217 225 225 222 225 226 220 225 233 232 225 227 240 238 223 205 193 195 201 204 215 223 218 217 219 221 224 225 228 229 215 209 209 205 201 196 187 186 184 181 184 187 189 190 193 195 194 195 199 198 191 187 191 195 193 192
235 234 224 215 212 218 218 213 218 224 226 227 225 224 227 231 236 230 218 230 240 236 227 209 199 202 201 202 214 222 239 249 231 197 171 201 235 232 209 203 205 202 197 191 187 184 185 186 188 190 191 193 195 194 194 198 197 189 187 192 194 190 189
226 237 240 229 221 227 230 221 216 218 224 229 229 229 227 226 236 239 221 220 233 237 239 234 223 214 206 205 216 224 238 255 250 222 195 194 200 212 212 201 200 203 201 195 188 186 188 188 187 189 191 192 193 194 194 197 196 192 190 191 190 188 189
218 227 237 239 235 233 233 230 225 220 222 228 232 236 235 231 236 241 235 230 230 229 234 240 240 237 227 218 217 219 227 240 244 236 229 216 195 196 210 206 194 198 205 201 190 185 186 186 185 186 188 190 193 194 194 194 195 194 190 185 184 187 190
226 221 225 233 238 238 236 233 230 229 228 226 226 230 235 237 239 239 238 239 238 230 230 235 237 239 244 242 227 214 213 224 231 231 235 240 231 217 219 215 195 191 200 203 193 186 185 184 184 185 188 190 192 193 192 191 193 193 187 183 183 185 188
235 226 226 229 234 240 242 237 233 232 232 231 231 229 227 231 236 239 238 239 239 234 233 236 234 231 238 246 242 230 219 217 226 234 234 242 255 250 221 201 200 194 195 200 197 192 189 186 185 185 187 188 189 191 190 189 190 189 186 187 184 180 178
235 230 232 236 236 239 242 238 237 239 237 232 235 237 233 230 232 236 237 239 240 238 236 240 240 233 231 239 244 242 237 233 238 247 242 235 249 249 203 187 207 201 195 200 201 198 193 189 187 185 185 186 187 188 187 186 187 186 185 187 180 171 167
233 227 227 234 236 235 236 234 236 243 247 243 239 239 237 234 236 238 238 239 242 241 237 238 244 242 233 232 240 245 246 243 242 247 245 237 242 241 208 207 221 206 199 202 200 199 197 192 189 186 184 183 182 182 181 181 183 182 180 179 170 161 160
230 226 222 226 228 231 237 238 233 236 243 249 252 251 244 237 237 241 242 239 237 235 233 233 238 245 243 236 234 239 246 244 235 237 239 229 221 218 204 210 216 205 201 201 196 196 197 192 188 184 182 180 178 178 177 176 177 175 173 173 164 155 159
223 218 218 224 234 241 238 237 237 235 236 242 249 256 253 244 238 237 239 241 240 236 236 235 232 233 236 237 232 230 244 249 238 232 233 222 213 214 205 202 204 200 201 201 194 191 191 189 185 182 182 180 177 176 175 172 172 170 171 174 167 157 161
218 219 223 227 243 248 237 230 243 260 263 262 263 270 273 273 264 246 236 238 242 239 236 240 244 235 227 228 226 219 229 242 237 231 232 228 225 223 211 204 203 198 198 198 190 184 184 184 183 182 180 177 173 170 169 167 167 168 171 173 168 163 166
215 222 228 229 235 236 223 189 110 28 340 335 344 312 277 283 285 266 244 236 239 238 230 229 241 247 234 225 228 229 231 232 227 226 228 228 229 224 208 202 198 189 191 192 185 182 183 182 180 178 176 171 166 164 165 164 163 165 168 170 170 170 171
220 223 227 228 231 228 173 129 112 50 353 2 356 287 255 256 273 275 264 249 240 238 234 229 231 238 236 227 230 240 243 235 220 217 225 225 224 219 206 200 190 181 185 185 179 178 178 176 175 174 172 169 165 162 161 161 160 162 165 167 169 171 170
218 221 227 232 233 191 128 133 128 77 7 351 268 245 254 292 305 302 294 280 260 245 237 232 229 227 225 230 238 245 246 231 201 200 220 220 217 214 207 197 182 174 177 177 175 176 174 171 172 171 169 166 162 158 156 156 158 160 158 156 159 163 164
215 217 224 237 241 189 159 167 121 70 310 265 236 231 299 343 331 323 315 307 291 267 246 233 229 224 210 217 238 251 243 215 190 196 207 203 207 211 199 181 167 163 167 173 178 179 172 166 165 163 160 157 156 154 152 152 153 152 148 148 152 157 160
218 220 224 232 236 180 146 157 139 152 232 235 243 292 344 338 325 324 322 316 304 282 261 250 250 245 217 216 231 237 231 209 193 199 196 189 199 197 173 157 155 157 162 169 171 166 159 155 154 153 151 149 148 148 146 145 145 145 145 147 150 154 157
217 217 222 232 228 171 151 172 167 180 230 241 316 325 329 332 330 331 325 312 300 282 263 254 253 248 229 223 227 228 220 201 188 193 189 181 179 163 146 149 157 158 156 155 153 149 148 150 150 146 140 135 135 140 140 140 142 142 143 145 146 147 151
219 222 220 225 161 136 155 175 157 153 249 7 7 328 333 335 326 332 329 302 285 277 267 256 247 235 219 210 210 210 199 177 167 163 156 157 160 155 153 152 149 147 143 138 140 142 143 145 143 136 130 129 134 138 137 136 138 139 140 142 141 142 146
214 240 193 123 99 108 120 102 74 80 76 43 14 353 12 357 329 322 315 282 262 259 254 191 116 194 212 190 184 188 173 149 140 138 138 144 146 143 138 127 120 120 119 117 118 120 121 123 126 128 132 133 129 127 127 130 134 136 139 141 142 144 149
111 66 74 106 110 105 105 94 69 59 72 68 46 63 77 43 8 352 342 329 333 65 103 111 115 131 154 148 143 142 131 118 112 107 106 107 112 117 118 113 109 108 105 101 99 97 99 104 110 119 127 128 125 125 128 131 135 137 138 137 141 149 154
138 117 106 96 88 88 95 92 71 57 67 83 74 60 63 58 22 7 10 346 334 8 71 79 78 82 79 78 86 90 91 92 90 88 88 87 89 97 102 103 104 104 101 98 97 97 100 106 111 115 121 125 129 133 134 136 139 140 139 139 146 157 160
154 139 121 97 80 73 77 81 69 52 57 78 87 81 76 80 80 74 77 36 326 355 61 75 74 74 71 67 71 74 74 77 80 81 84 84 84 86 87 89 95 100 100 99 98 97 98 104 112 117 119 126 133 136 138 141 142 142 143 146 153 160 161
128 124 129 118 97 84 80 77 64 49 49 61 70 77 82 86 86 78 77 78 44 32 58 67 66 65 63 62 65 67 64 63 67 72 76 78 78 80 82 82 85 90 96 100 101 101 101 104 111 113 117 127 137 139 142 145 145 146 148 150 153 156 158
154 157 162 146 114 97 95 84 66 55 56 57 54 50 50 57 65 66 63 59 53 52 55 57 58 59 55 53 58 61 57 50 52 61 72 77 77 78 81 83 82 83 87 92 94 97 100 104 110 115 121 132 138 140 145 151 151 151 152 153 152 153 157
164 151 149 134 107 99 98 90 78 64 58 58 53 42 31 27 33 44 50 44 40 45 49 49 52 54 51 49 52 54 51 44 40 45 55 65 72 76 79 80 80 79 81 83 85 89 93 98 103 109 116 124 129 131 136 142 145 148 153 154 152 153 158
76 108 111 106 102 103 98 89 84 74 63 60 55 44 33 24 20 25 35 38 37 41 44 43 45 48 47 45 47 47 47 43 38 40 46 50 57 69 76 77 76 74 74 77 81 85 90 95 101 104 105 111 120 125 128 132 140 148 155 156 155 157 155
93 94 92 93 95 98 93 82 76 73 72 71 62 49 37 28 19 18 27 33 35 39 40 37 37 41 42 40 39 41 41 37 32 37 45 46 45 52 63 68 70 70 72 75 81 88 93 97 102 106 107 111 119 129 137 143 149 158 164 164 159 156 151